Hulianwang W. Digui 12-01

operational
NORAD ID: 65995 Int'l Des: 2025-231 Owner: ZXW Country: CN Constellation: xingwang
NOTLE

Über Hulianwang W. Digui 12-01

Beschreibung wird geladen...

Live-Position

3D-Globus wird geladen...

Nächste Überflüge

Höhenverlauf

Altitude vs Time

uPlot chart will show altitude changes over time

Zweizeiliger Elementsatz

1 65995U 25231A 25297.92646114 .00000129 00000-0 17245-3 0 9999
2 65995 50.0014 321.6525 0006601 284.0118 76.0053 14.05444507 1250
Epoch: 24. Okt. 2025 • Age: 26 hours

Aktueller Status

Höhe 884.4 km
Geschwindigkeit 7.41 km/s
Subsatellitenpunkt 46.16°N, 36.88°E
Startdatum 16. Okt. 2025
Alter 10 days
Typ other

Technische Details

Klassifizierung Payload
Masse 800.00 kg
Trockenmasse 800.00 kg
Gesamtmasse 800.00 kg
Länge 3.00 m
Durchmesser 1.00 m
Spannweite 10.00 m
Form Box + 2 Pan
Hersteller CAST
Bus-Typ Guowang C
Phasenstatus In Orbit
Besitzer/Staat ZXW/CN

Große Konstellationen

Loading constellations...